DW6399 Weather Reports


Display with metric or nautical units.
time (UTC)temp
F
wind
direction
speed
MPH
gust
MPH
rain 1hr
in
rain 24hr
in
rain mn
in
humidity
%
barometer
mb
20260903112704 62 157 6.0 11.0 0.00 0.00 0.00 81 999.9
20260903111804 61 160 6.0 15.0 0.00 0.00 0.00 81 999.9
20260903110904 61 164 7.0 12.0 0.00 0.00 0.00 82 999.9
20260903110004 60 167 6.0 11.0 0.00 0.00 0.00 83 1000.0
20260903105404 60 167 6.0 11.0 0.00 0.00 0.00 82 1000.0
20260903104524 60 171 6.0 12.0 0.00 0.00 0.00 82 1000.0
20260903103604 60 167 6.0 14.0 0.00 0.00 0.00 82 1000.1
20260903102725 60 166 7.0 13.0 0.00 0.00 0.00 83 1000.1
20260903101804 60 164 7.0 15.0 0.00 0.00 0.00 84 1000.2
20260903100925 60 169 6.0 15.0 0.00 0.00 0.00 85 1000.1
20260903100004 60 185 5.0 12.0 0.00 0.00 0.00 84 1000.1
20260903095404 60 175 6.0 12.0 0.00 0.00 0.00 84 1000.2
20260903094504 61 175 5.0 12.0 0.00 0.00 0.00 84 1000.1
20260903093604 61 168 7.0 14.0 0.00 0.00 0.00 83 1000.0
20260903092704 61 174 5.0 11.0 0.00 0.00 0.00 83 1000.0
20260903091804 61 167 4.0 11.0 0.00 0.00 0.00 84 1000.0
20260903090904 61 168 4.0 9.0 0.00 0.00 0.00 84 1000.0
20260903090004 61 170 5.0 9.0 0.00 0.00 0.00 85 1000.0
20260903085403 61 161 6.0 10.0 0.00 0.00 0.00 85 1000.1
20260903084525 61 166 6.0 11.0 0.00 0.00 0.00 85 1000.1
20260903083604 60 166 5.0 9.0 0.00 0.00 0.00 86 1000.1
20260903082704 60 166 7.0 13.0 0.00 0.00 0.00 85 1000.2
20260903081804 60 162 6.0 14.0 0.00 0.00 0.00 86 1000.2
20260903080903 60 160 6.0 9.0 0.00 0.00 0.00 87 1000.2
20260903080025 60 164 6.0 11.0 0.00 0.00 0.00 87 1000.2
20260903075403 60 157 7.0 13.0 0.00 0.00 0.00 88 1000.2
20260903074504 59 157 6.0 12.0 0.00 0.00 0.00 89 1000.2
20260903073604 59 163 6.0 12.0 0.00 0.00 0.00 90 1000.3
20260903072703 59 156 6.0 11.0 0.00 0.00 0.00 93 1000.3
20260903071803 58 162 5.0 11.0 0.00 0.00 0.00 97 1000.4
20260903070904 57 159 3.0 8.0 0.00 0.00 0.00 97 1000.4
20260903070004 56 165 4.0 9.0 0.00 0.00 0.00 97 1000.4
20260903065404 55 155 4.0 9.0 0.00 0.00 0.00 97 1000.5
20260903064503 54 127 3.0 6.0 0.00 0.00 0.00 97 1000.4
20260903063604 54 133 3.0 6.0 0.00 0.00 0.00 97 1000.3
20260903062703 53 116 2.0 4.0 0.00 0.00 0.00 97 1000.4
20260903061804 52 127 2.0 5.0 0.00 0.00 0.00 97 1000.4
20260903060904 51 134 2.0 4.0 0.00 0.00 0.00 97 1000.5
20260903060004 50 134 2.0 4.0 0.00 0.00 0.00 97 1000.5
20260903055403 50 154 2.0 4.0 0.00 0.00 0.00 96 1000.6
20260903054525 49 139 2.0 5.0 0.00 0.00 0.00 96 1000.7
20260903053625 48 125 1.0 3.0 0.00 0.00 0.00 97 1000.6
20260903052704 47 125 1.0 3.0 0.00 0.00 0.00 96 1000.7
20260903051804 46 125 1.0 3.0 0.00 0.00 0.00 96 1000.7
20260903050903 45 123 1.0 3.0 0.00 0.00 0.00 96 1000.8
20260903050004 45 278 0.0 3.0 0.00 0.00 0.00 96 1000.6
20260903045404 45 0 0.0 0.0 0.00 0.00 0.00 96 1000.7
20260903044504 44 0 0.0 0.0 0.00 0.00 0.00 96 1000.7
20260903043624 44 278 0.0 2.0 0.00 0.00 0.00 96 1000.8
20260903042725 44 0 0.0 0.0 0.00 0.00 0.00 95 1000.8
20260903041803 44 278 0.0 2.0 0.00 0.00 0.00 95 1000.9
20260903040904 44 0 0.0 0.0 0.00 0.00 0.00 95 1000.9
20260903040025 44 0 0.0 0.0 0.00 0.00 0.00 95 1000.9
20260903035403 45 0 0.0 0.0 0.00 0.00 0.00 96 1000.9
20260903034525 45 0 0.0 0.0 0.00 0.00 0.00 95 1001.0
20260903033603 45 0 0.0 0.0 0.00 0.00 0.00 96 1001.0
20260903032703 45 0 0.0 0.0 0.00 0.00 0.00 96 1001.1
20260903031803 45 278 0.0 2.0 0.00 0.00 0.00 96 1001.0
20260903030903 45 0 0.0 0.0 0.00 0.00 0.00 96 1001.1
20260903030025 45 278 0.0 1.0 0.00 0.00 0.00 96 1001.1
20260903025403 45 0 0.0 0.0 0.00 0.00 0.00 95 1001.1
20260903024503 45 278 0.0 1.0 0.00 0.00 0.00 95 1001.1
20260903023603 45 278 0.0 2.0 0.00 0.00 0.00 95 1001.2
20260903022704 45 0 0.0 0.0 0.00 0.00 0.00 95 1001.3
20260903021803 46 0 0.0 0.0 0.00 0.00 0.00 95 1001.4
20260903020904 46 278 0.0 2.0 0.00 0.00 0.00 95 1001.4
20260903020025 46 0 0.0 0.0 0.00 0.00 0.00 96 1001.3
20260903015404 46 0 0.0 0.0 0.00 0.00 0.00 96 1001.3
20260903014503 46 0 0.0 0.0 0.00 0.00 0.00 96 1001.4
20260903013603 46 278 0.0 2.0 0.00 0.00 0.00 96 1001.4
20260903012703 46 278 1.0 2.0 0.00 0.00 0.00 96 1001.3
20260903011804 46 0 0.0 0.0 0.00 0.00 0.00 96 1001.4
20260903010904 46 0 0.0 0.0 0.00 0.00 0.00 96 1001.5
20260903010025 45 0 0.0 0.0 0.00 0.00 0.00 95 1001.5
20260903005425 45 278 0.0 3.0 0.00 0.00 0.00 95 1001.6
20260903004504 45 278 1.0 3.0 0.00 0.00 0.00 96 1001.5
20260903003603 45 0 0.0 0.0 0.00 0.00 0.00 95 1001.6
20260903002704 44 0 0.0 0.0 0.00 0.00 0.00 95 1001.6
20260903001824 44 0 0.0 0.0 0.00 0.00 0.00 95 1001.7
20260903000904 44 0 0.0 0.0 0.00 0.00 0.00 95 1001.7
20260903000004 44 0 0.0 0.0 0.00 0.00 0.00 95 1001.7
20260902235403 44 0 0.0 0.0 0.00 0.00 0.00 95 1001.7
20260902234504 44 0 0.0 0.0 0.00 0.00 0.00 95 1001.8
20260902233603 44 0 0.0 0.0 0.00 0.00 0.00 95 1001.7
20260902232704 44 0 0.0 0.0 0.00 0.00 0.00 95 1001.8
20260902231804 44 0 0.0 0.0 0.00 0.00 0.00 95 1001.8
20260902230904 44 0 0.0 0.0 0.00 0.00 0.00 95 1001.8
20260902230004 44 0 0.0 0.0 0.00 0.00 0.00 95 1001.9
20260902225425 44 0 0.0 0.0 0.00 0.00 0.00 95 1002.0
20260902224504 43 0 0.0 0.0 0.00 0.00 0.00 94 1002.0
20260902223603 43 0 0.0 0.0 0.00 0.00 0.00 95 1001.9
20260902222704 43 0 0.0 0.0 0.00 0.00 0.00 94 1002.0
20260902221804 44 0 0.0 0.0 0.00 0.00 0.00 95 1002.0
20260902220904 44 0 0.0 0.0 0.00 0.00 0.00 94 1002.1
20260902220003 44 0 0.0 0.0 0.00 0.00 0.00 94 1002.2
20260902215424 44 0 0.0 0.0 0.00 0.00 0.00 95 1002.2
20260902214503 44 0 0.0 0.0 0.00 0.00 0.00 94 1002.3
20260902213603 44 0 0.0 0.0 0.00 0.01 0.00 94 1002.3
20260902212703 44 0 0.0 0.0 0.00 0.01 0.00 94 1002.3
20260902211803 44 278 0.0 1.0 0.00 0.01 0.00 94 1002.4
20260902210903 44 278 0.0 1.0 0.00 0.01 0.00 94 1002.4
20260902210026 44 278 0.0 1.0 0.00 0.01 0.00 94 1002.5
20260902205404 44 0 0.0 0.0 0.00 0.01 0.01 94 1002.5
20260902204503 43 278 0.0 1.0 0.00 0.01 0.01 93 1002.6
20260902203625 44 278 0.0 1.0 0.00 0.01 0.01 93 1002.6
20260902202703 44 278 0.0 1.0 0.00 0.01 0.01 93 1002.6
20260902201803 44 278 0.0 1.0 0.00 0.01 0.01 94 1002.7
20260902200924 44 278 1.0 2.0 0.00 0.01 0.01 93 1002.7
20260902200003 44 278 1.0 2.0 0.00 0.01 0.01 93 1002.6
20260902195403 44 278 1.0 2.0 0.00 0.01 0.01 93 1002.7
20260902194503 44 278 1.0 2.0 0.00 0.01 0.01 93 1002.7
20260902193603 45 278 1.0 3.0 0.00 0.01 0.01 93 1002.6
20260902192704 44 0 0.0 0.0 0.00 0.01 0.01 92 1002.6
20260902191803 45 0 0.0 0.0 0.00 0.01 0.01 92 1002.5
20260902190903 45 0 0.0 0.0 0.00 0.01 0.01 92 1002.5
20260902190004 45 0 0.0 0.0 0.00 0.01 0.01 91 1002.5
20260902185424 46 0 0.0 0.0 0.00 0.01 0.01 91 1002.5
20260902184504 46 278 0.0 1.0 0.00 0.01 0.01 91 1002.5
20260902183603 47 278 0.0 2.0 0.00 0.01 0.01 91 1002.5
20260902182703 47 278 1.0 2.0 0.00 0.01 0.01 91 1002.5
20260902181825 48 278 3.0 3.0 0.00 0.01 0.01 91 1002.6
20260902180903 48 278 3.0 4.0 0.00 0.01 0.01 91 1002.6
20260902180006 48 278 2.0 3.0 0.00 0.01 0.01 90 1002.7
20260902175403 49 278 2.0 3.0 0.00 0.01 0.01 90 1002.8
20260902174503 49 278 2.0 3.0 0.00 0.01 0.01 90 1002.7
20260902173603 50 278 2.0 3.0 0.00 0.01 0.01 89 1002.8
20260902172703 50 278 2.0 3.0 0.00 0.01 0.01 88 1002.8
20260902171803 51 278 2.0 3.0 0.00 0.01 0.01 87 1002.8
20260902170903 52 278 2.0 3.0 0.00 0.01 0.01 87 1002.9
20260902170003 53 278 2.0 3.0 0.00 0.01 0.01 85 1002.8
20260902165403 54 278 2.0 3.0 0.00 0.01 0.01 84 1002.8
20260902164503 56 276 2.0 3.0 0.00 0.01 0.01 80 1002.9
20260902163603 58 271 2.0 4.0 0.00 0.01 0.01 77 1002.8
20260902162703 59 282 2.0 6.0 0.00 0.01 0.01 74 1002.8
20260902161803 60 284 2.0 4.0 0.00 0.01 0.01 75 1002.8
20260902160903 61 286 3.0 6.0 0.00 0.01 0.01 70 1002.8
20260902160005 61 284 4.0 7.0 0.00 0.01 0.01 69 1002.9
20260902155403 62 283 4.0 9.0 0.00 0.01 0.01 69 1002.9
20260902154503 62 274 3.0 9.0 0.00 0.03 0.01 68 1002.8
20260902153624 62 279 2.0 4.0 0.00 0.18 0.01 69 1002.9
20260902152703 62 266 3.0 9.0 0.00 0.18 0.01 69 1002.9
20260902151803 62 281 4.0 10.0 0.00 0.18 0.01 68 1002.9
20260902150903 62 280 4.0 9.0 0.00 0.18 0.01 67 1002.8
20260902150003 62 281 3.0 9.0 0.00 0.18 0.01 69 1002.8
20260902145403 63 273 3.0 8.0 0.00 0.18 0.01 68 1002.9
20260902144503 63 283 5.0 9.0 0.00 0.18 0.01 68 1002.8
20260902143624 63 290 4.0 10.0 0.00 0.18 0.01 69 1002.9
20260902142705 63 284 5.0 10.0 0.00 0.18 0.01 68 1002.8
20260902141803 63 270 3.0 11.0 0.00 0.18 0.01 68 1002.8
20260902140903 64 277 3.0 10.0 0.00 0.18 0.01 69 1002.8
20260902140004 64 266 3.0 8.0 0.00 0.18 0.01 70 1002.8
20260902135404 64 246 3.0 8.0 0.00 0.18 0.01 70 1002.7
20260902134503 64 286 4.0 11.0 0.00 0.18 0.01 70 1002.8
20260902133603 64 265 3.0 11.0 0.00 0.18 0.01 69 1002.9
20260902132703 64 218 3.0 11.0 0.00 0.18 0.01 72 1002.8
20260902131803 63 293 4.0 9.0 0.00 0.18 0.01 71 1002.8
20260902130903 63 296 5.0 12.0 0.00 0.18 0.01 72 1002.9
20260902130003 62 290 4.0 8.0 0.00 0.18 0.01 73 1002.9
20260902125403 62 291 5.0 11.0 0.00 0.18 0.01 73 1002.9
20260902124504 63 282 5.0 11.0 0.00 0.18 0.01 72 1003.0
20260902123603 63 236 3.0 8.0 0.00 0.18 0.01 71 1003.0
20260902122703 63 277 4.0 11.0 0.00 0.18 0.01 73 1003.0
20260902121824 63 281 5.0 10.0 0.00 0.18 0.01 71 1003.0
20260902120903 63 245 4.0 10.0 0.00 0.18 0.01 71 1003.0
20260902120003 63 280 6.0 14.0 0.00 0.18 0.01 69 1003.0
20260902115403 63 282 5.0 12.0 0.00 0.18 0.01 72 1003.0
20260902114503 62 267 5.0 13.0 0.00 0.18 0.01 74 1003.0
20260902113603 62 282 4.0 10.0 0.00 0.18 0.01 73 1003.0